DW6860 Weather Reports


time (UTC)temp
F
wind
direction
speed
knots
gust
knots
rain 1hr
in
rain 24hr
in
rain mn
in
humidity
%
barometer
mb
20260506014029 50 12 4.3 12.2 0.00 0.03 0.00 83 1007.5
20260506013616 50 28 4.3 12.2 0.00 0.03 0.00 83 1007.6
20260506013507 50 12 4.3 12.2 0.00 0.03 0.00 83 1007.6
20260506013114 50 14 4.3 10.4 0.00 0.03 0.00 83 1007.5
20260506013009 50 15 4.3 10.4 0.00 0.03 0.00 83 1007.5
20260506012607 50 5 5.2 10.4 0.00 0.03 0.00 83 1007.5
20260506012507 50 18 5.2 11.3 0.00 0.03 0.00 83 1007.5
20260506012113 50 355 6.1 11.3 0.00 0.03 0.00 83 1007.4
20260506012007 50 20 6.1 11.3 0.00 0.03 0.00 83 1007.5
20260506011608 50 26 4.3 11.3 0.00 0.03 0.00 83 1007.6
20260506011509 50 21 4.3 10.4 0.00 0.03 0.00 83 1007.6
20260506011101 50 19 3.5 10.4 0.00 0.03 0.00 83 1007.6
20260506011010 50 17 2.6 9.6 0.00 0.03 0.00 83 1007.6
20260506010611 50 20 3.5 7.0 0.00 0.03 0.00 83 1007.6
20260506010507 50 13 3.5 7.0 0.00 0.03 0.00 83 1007.7
20260506010125 50 29 3.5 10.4 0.00 0.03 0.00 83 1007.7
20260506010008 50 14 4.3 10.4 0.00 0.03 0.00 83 1007.7
20260506005601 50 23 4.3 10.4 0.00 0.03 0.00 82 1007.7
20260506005507 50 17 4.3 10.4 0.00 0.03 0.00 82 1007.8
20260506005228 50 0 4.3 8.7 0.00 0.03 0.00 82 1007.7
20260506005121 50 18 4.3 10.4 0.00 0.03 0.00 82 1007.7
20260506005008 50 19 4.3 10.4 0.00 0.03 0.00 82 1007.8
20260506004507 50 19 4.3 8.7 0.00 0.03 0.00 82 1007.8
20260506004056 50 5 4.3 9.6 0.00 0.03 0.00 82 1007.8
20260506004008 50 19 4.3 9.6 0.00 0.03 0.00 82 1007.9
20260506003603 50 335 3.5 9.6 0.00 0.03 0.00 82 1007.8
20260506003508 50 16 4.3 9.6 0.00 0.03 0.00 82 1007.9
20260506003052 50 5 4.3 9.6 0.00 0.03 0.00 81 1008.0
20260506003009 50 19 4.3 9.6 0.00 0.03 0.00 81 1008.1
20260506002554 51 46 4.3 9.6 0.00 0.03 0.00 81 1007.9
20260506002507 50 22 4.3 9.6 0.00 0.03 0.00 81 1008.1
20260506002058 51 27 4.3 9.6 0.00 0.03 0.00 81 1008.0
20260506002008 50 21 4.3 9.6 0.00 0.03 0.00 81 1008.1
20260506001553 51 30 4.3 8.7 0.00 0.03 0.00 81 1008.1
20260506001507 51 19 3.5 8.7 0.00 0.03 0.00 81 1008.1
20260506001059 51 27 4.3 8.7 0.00 0.03 0.00 81 1008.1
20260506001030 51 18 4.3 8.7 0.00 0.03 0.00 81 1008.1
20260506000555 51 19 4.3 10.4 0.00 0.03 0.00 81 1008.1
20260506000507 51 19 4.3 10.4 0.00 0.03 0.00 81 1008.1
20260506000056 51 22 3.5 10.4 0.00 0.03 0.00 80 1008.2
20260506000009 51 21 3.5 10.4 0.00 0.03 0.00 80 1008.1
20260505235723 51 33 3.5 9.6 0.00 0.03 0.00 80 1008.2
20260505235632 51 28 3.5 9.6 0.00 0.03 0.00 80 1008.2
20260505235507 51 19 3.5 9.6 0.00 0.03 0.00 80 1008.2
20260505235007 51 17 3.5 9.6 0.00 0.03 0.00 80 1008.2
20260505234550 51 5 4.3 8.7 0.00 0.03 0.00 80 1008.2
20260505234507 51 19 4.3 8.7 0.00 0.03 0.00 80 1008.3
20260505234050 51 52 4.3 9.6 0.00 0.03 0.00 80 1008.3
20260505234007 51 16 4.3 9.6 0.00 0.03 0.00 80 1008.3
20260505233628 51 23 3.5 8.7 0.00 0.03 0.00 79 1008.3
20260505233601 51 5 3.5 9.6 0.00 0.03 0.00 79 1008.4
20260505233507 51 15 3.5 9.6 0.00 0.03 0.00 79 1008.3
20260505233007 51 17 3.5 8.7 0.00 0.03 0.00 79 1008.4
20260505232606 51 348 4.3 12.2 0.00 0.03 0.00 79 1008.4
20260505232508 51 19 4.3 12.2 0.00 0.03 0.00 79 1008.4
20260505232052 51 26 4.3 12.2 0.00 0.03 0.00 79 1008.3
20260505232008 51 19 4.3 12.2 0.00 0.03 0.00 79 1008.3
20260505231542 51 5 3.5 8.7 0.00 0.03 0.00 79 1008.4
20260505231507 51 18 3.5 8.7 0.00 0.03 0.00 79 1008.4
20260505231050 51 19 3.5 8.7 0.00 0.03 0.00 79 1008.4
20260505231029 51 18 3.5 8.7 0.00 0.03 0.00 79 1008.5
20260505230549 51 57 3.5 8.7 0.00 0.03 0.00 79 1008.3
20260505230507 51 20 3.5 8.7 0.00 0.03 0.00 79 1008.3
20260505230115 51 9 3.5 7.8 0.00 0.03 0.00 79 1008.4
20260505230008 52 20 2.6 7.8 0.00 0.03 0.00 79 1008.4
20260505225542 51 25 3.5 7.8 0.00 0.03 0.00 78 1008.4
20260505225528 52 16 3.5 7.8 0.00 0.03 0.00 78 1008.4
20260505225043 51 11 3.5 7.8 0.00 0.03 0.00 78 1008.4
20260505225008 52 15 3.5 7.8 0.00 0.03 0.00 78 1008.4
20260505224541 52 9 3.5 7.0 0.00 0.03 0.00 78 1008.5
20260505224507 52 16 3.5 7.0 0.00 0.03 0.00 78 1008.5
20260505224049 52 355 4.3 10.4 0.00 0.03 0.00 78 1008.6
20260505224007 52 17 4.3 10.4 0.00 0.03 0.00 78 1008.6
20260505223540 52 13 5.2 10.4 0.00 0.03 0.00 78 1008.6
20260505223507 52 16 5.2 10.4 0.00 0.03 0.00 78 1008.7
20260505223046 52 22 4.3 10.4 0.00 0.03 0.00 77 1008.6
20260505223029 52 18 4.3 10.4 0.00 0.03 0.00 77 1008.6
20260505222544 52 15 4.3 10.4 0.00 0.03 0.00 77 1008.7
20260505222528 52 19 4.3 10.4 0.00 0.03 0.00 77 1008.7
20260505222257 52 0 3.5 8.7 0.00 0.03 0.00 77 1008.7
20260505222131 52 25 3.5 7.8 0.00 0.03 0.00 77 1008.6
20260505222029 52 17 3.5 7.8 0.00 0.03 0.00 77 1008.7
20260505221507 52 16 4.3 8.7 0.00 0.03 0.00 77 1008.7
20260505221036 52 25 4.3 8.7 0.00 0.04 0.00 77 1008.6
20260505221008 52 14 4.3 8.7 0.00 0.04 0.00 77 1008.7
20260505220545 52 329 3.5 8.7 0.00 0.04 0.00 77 1008.7
20260505220530 52 15 3.5 8.7 0.00 0.04 0.00 77 1008.7
20260505220107 52 21 3.5 8.7 0.00 0.04 0.00 77 1008.7
20260505220033 52 16 2.6 8.7 0.00 0.04 0.00 77 1008.8
20260505215758 52 17 3.5 7.8 0.00 0.04 0.00 77 1008.7
20260505215750 52 0 3.5 9.6 0.00 0.04 0.00 77 1008.8
20260505215621 52 48 2.6 7.0 0.00 0.04 0.00 77 1008.8
20260505215507 52 16 2.6 7.0 0.00 0.04 0.04 77 1008.8
20260505215007 52 17 3.5 7.8 0.00 0.04 0.04 77 1008.8
20260505214508 52 17 3.5 9.6 0.00 0.04 0.04 77 1008.8
20260505214035 52 21 3.5 9.6 0.00 0.04 0.00 77 1008.9
20260505214008 52 19 3.5 9.6 0.00 0.04 0.04 77 1008.9
20260505213532 53 338 3.5 7.8 0.00 0.04 0.00 77 1008.8
20260505213529 52 16 3.5 7.8 0.00 0.04 0.04 77 1008.8
20260505213033 53 30 3.5 7.8 0.00 0.04 0.00 77 1008.9
20260505213008 53 15 3.5 7.8 0.00 0.04 0.04 77 1008.9
20260505212812 53 17 2.6 5.2 0.00 0.04 0.00 78 1008.8
20260505212638 53 346 2.6 7.8 0.00 0.04 0.00 77 1008.8
20260505212507 53 18 2.6 7.8 0.00 0.04 0.04 77 1008.8
20260505212008 53 20 2.6 6.1 0.00 0.04 0.04 78 1008.9
20260505211536 53 28 2.6 6.1 0.00 0.04 0.00 78 1008.9
20260505211507 53 19 2.6 6.1 0.00 0.04 0.04 78 1008.9
20260505211044 53 63 3.5 7.8 0.00 0.04 0.00 78 1008.9
20260505211008 53 15 3.5 7.8 0.00 0.04 0.04 78 1008.9
20260505210741 53 18 2.6 6.1 0.00 0.04 0.00 78 1008.9
20260505210612 53 16 3.5 7.8 0.00 0.04 0.00 78 1008.8
20260505210507 53 16 2.6 7.8 0.00 0.04 0.04 78 1008.9
20260505210009 53 19 2.6 5.2 0.00 0.04 0.04 77 1008.9
20260505205818 53 22 3.5 7.8 0.00 0.04 0.00 77 1008.9
20260505205617 53 0 2.6 7.0 0.00 0.04 0.00 77 1008.9
20260505205528 53 21 2.6 7.0 0.00 0.04 0.04 77 1008.9
20260505205009 53 21 3.5 7.8 0.00 0.04 0.04 77 1009.0
20260505204538 53 27 3.5 7.8 0.00 0.04 0.00 77 1008.9
20260505204507 53 20 3.5 7.8 0.00 0.04 0.04 77 1008.9
20260505204312 53 27 4.3 7.8 0.00 0.05 0.00 76 1009.0
20260505204113 53 22 2.6 7.8 0.00 0.04 0.00 77 1008.9
20260505204008 53 20 2.6 7.8 0.00 0.04 0.04 77 1009.0
20260505203552 53 24 2.6 7.0 0.00 0.04 0.00 77 1009.0
20260505203508 53 23 2.6 7.0 0.00 0.04 0.04 77 1009.0
20260505203254 53 19 2.6 7.0 0.00 0.04 0.00 77 1009.0
20260505203008 53 26 2.6 7.8 0.00 0.04 0.04 77 1009.0
20260505202928 53 13 3.5 7.8 0.00 0.06 0.00 76 1009.0
20260505202630 53 59 3.5 7.8 0.00 0.05 0.00 76 1008.9
20260505202509 53 24 3.5 7.8 0.00 0.05 0.04 76 1009.0
20260505202028 53 23 4.3 7.8 0.00 0.05 0.04 76 1009.0
20260505201507 54 23 3.5 7.8 0.00 0.06 0.04 76 1009.0
20260505201032 53 14 2.6 7.8 0.00 0.07 0.00 76 1009.0
20260505201008 54 22 2.6 7.8 0.00 0.07 0.04 76 1009.0
20260505200549 54 19 3.5 10.4 0.00 0.08 0.00 76 1009.0
20260505200528 54 21 3.5 10.4 0.00 0.08 0.04 76 1009.0
20260505200054 54 340 4.3 10.4 0.00 0.08 0.00 75 1008.9
20260505200029 54 22 4.3 10.4 0.00 0.08 0.04 75 1009.0
20260505195538 54 27 4.3 10.4 0.00 0.08 0.00 75 1008.8
20260505195510 54 22 4.3 10.4 0.00 0.08 0.04 75 1008.9
20260505195041 54 42 3.5 8.7 0.00 0.08 0.00 75 1008.8
20260505195007 54 22 3.5 8.7 0.00 0.08 0.04 75 1008.8
20260505194539 54 34 3.5 7.8 0.00 0.08 0.00 75 1008.9
20260505194507 54 25 3.5 7.8 0.00 0.08 0.04 75 1008.9
20260505194040 54 21 4.3 9.6 0.00 0.08 0.00 75 1008.8
20260505194008 54 23 4.3 9.6 0.00 0.08 0.04 75 1008.8
20260505193526 55 25 3.5 9.6 0.00 0.08 0.00 75 1008.8
20260505193507 54 22 3.5 9.6 0.00 0.08 0.04 75 1008.8
20260505193032 55 38 3.5 8.7 0.00 0.08 0.00 75 1008.7
20260505193028 55 27 3.5 8.7 0.00 0.08 0.04 75 1008.7
20260505192538 55 355 4.3 10.4 0.00 0.08 0.00 75 1008.7
20260505192528 55 26 4.3 10.4 0.00 0.08 0.04 75 1008.8
20260505192035 55 28 5.2 10.4 0.00 0.08 0.00 75 1008.7
20260505192007 55 23 5.2 10.4 0.00 0.08 0.04 75 1008.7
20260505191533 55 21 3.5 8.7 0.00 0.08 0.00 76 1008.6
20260505191507 55 22 3.5 8.7 0.00 0.08 0.04 76 1008.6
20260505191317 55 5 2.6 5.2 0.00 0.08 0.00 78 1008.5
20260505191109 55 24 2.6 8.7 0.00 0.08 0.00 77 1008.6
20260505191009 55 26 2.6 8.7 0.00 0.08 0.04 77 1008.6
20260505190507 55 28 2.6 5.2 0.00 0.08 0.04 78 1008.5
20260505190259 56 51 1.7 4.3 0.00 0.08 0.00 78 1008.5
20260505190114 56 9 2.6 5.2 0.00 0.08 0.00 78 1008.6
20260505190008 56 31 2.6 5.2 0.00 0.08 0.04 78 1008.6
20260505185542 56 45 1.7 4.3 0.00 0.08 0.00 78 1008.5
20260505185507 56 31 1.7 4.3 0.00 0.08 0.04 78 1008.5
20260505185008 56 33 1.7 4.3 0.00 0.08 0.04 78 1008.5
20260505184528 56 36 1.7 6.1 0.00 0.08 0.00 78 1008.4
20260505184506 56 33 1.7 6.1 0.00 0.08 0.04 78 1008.4
20260505184034 56 45 2.6 6.1 0.00 0.08 0.00 78 1008.4
20260505184007 56 28 2.6 6.1 0.00 0.08 0.04 78 1008.4
20260505183525 56 32 2.6 4.3 0.00 0.08 0.00 78 1008.4
20260505183507 56 31 2.6 4.3 0.00 0.08 0.04 78 1008.4
20260505183036 56 17 1.7 4.3 0.00 0.08 0.00 77 1008.4
20260505183029 56 35 1.7 4.3 0.00 0.08 0.04 77 1008.4
20260505182619 56 53 1.7 4.3 0.00 0.08 0.00 77 1008.3
20260505182533 56 65 1.7 7.0 0.00 0.08 0.00 77 1008.3
20260505182507 56 30 1.7 7.0 0.00 0.08 0.04 77 1008.4
20260505182455 56 42 2.6 7.0 0.00 0.08 0.00 77 1008.3
20260505182133 56 22 0.9 7.0 0.00 0.08 0.00 77 1008.3
20260505182007 56 33 0.9 7.0 0.00 0.08 0.04 77 1008.4
20260505181507 56 37 1.7 4.3 0.00 0.08 0.04 77 1008.4
20260505181007 56 27 2.6 7.0 0.00 0.08 0.04 77 1008.3
20260505180826 56 5 2.6 7.0 0.00 0.08 0.00 76 1008.2
20260505180616 56 15 2.6 7.0 0.00 0.08 0.00 77 1008.2
20260505180507 56 31 2.6 7.0 0.00 0.08 0.04 77 1008.2
20260505180028 56 30 2.6 7.0 0.00 0.08 0.04 76 1008.2
20260505175528 56 29 2.6 7.0 0.00 0.08 0.04 76 1008.2
20260505175521 56 28 2.6 5.2 0.00 0.08 0.00 76 1008.2
20260505175016 56 50 2.6 7.0 0.00 0.08 0.00 76 1008.2
20260505175007 56 28 2.6 7.0 0.00 0.08 0.04 76 1008.2
20260505174517 57 16 2.6 7.8 0.00 0.08 0.00 76 1008.2
20260505174507 57 24 2.6 7.8 0.00 0.08 0.04 76 1008.3
20260505174020 57 24 2.6 7.8 0.00 0.08 0.00 76 1008.2
20260505174007 57 31 2.6 7.8 0.00 0.08 0.04 76 1008.2
20260505173534 57 0 2.6 7.8 0.00 0.08 0.00 76 1008.3
20260505173529 57 42 2.6 7.8 0.00 0.08 0.04 76 1008.3
20260505173027 57 86 2.6 7.0 0.00 0.08 0.00 76 1008.3
20260505173007 57 30 2.6 7.0 0.00 0.08 0.04 76 1008.3
20260505172530 57 26 2.6 7.0 0.00 0.08 0.04 77 1008.2
20260505172519 57 5 2.6 7.0 0.00 0.08 0.00 77 1008.2
20260505172014 57 53 2.6 7.8 0.00 0.08 0.00 77 1008.2
20260505172007 57 30 2.6 7.8 0.00 0.08 0.04 77 1008.2
20260505171509 57 42 3.5 7.8 0.00 0.08 0.00 77 1008.3
20260505171507 57 25 3.5 7.8 0.00 0.08 0.04 77 1008.4
20260505171029 57 20 3.5 7.8 0.00 0.08 0.04 77 1008.4
20260505171013 57 25 3.5 7.8 0.00 0.08 0.00 77 1008.3
20260505170507 57 18 2.6 7.8 0.00 0.08 0.04 77 1008.4
20260505170505 57 42 2.6 7.8 0.00 0.08 0.00 77 1008.4
20260505170008 57 25 2.6 7.8 0.00 0.08 0.04 77 1008.5
20260505170004 57 35 2.6 7.8 0.00 0.08 0.00 77 1008.4
20260505165645 57 53 3.5 7.8 0.00 0.08 0.00 77 1008.5
20260505165525 57 43 2.6 7.8 0.00 0.08 0.00 77 1008.4
20260505165507 57 33 2.6 7.8 0.00 0.08 0.04 77 1008.5
20260505165030 57 28 3.5 7.8 0.00 0.08 0.04 77 1008.5
20260505164507 57 27 4.3 9.6 0.00 0.08 0.04 77 1008.6
20260505164505 57 5 4.3 9.6 0.00 0.08 0.00 77 1008.6
20260505164008 57 30 4.3 9.6 0.00 0.08 0.04 77 1008.6
20260505164001 57 26 4.3 9.6 0.00 0.08 0.00 77 1008.6
20260505163506 57 26 3.5 7.8 0.00 0.08 0.04 77 1008.5
20260505163502 57 46 3.5 7.8 0.00 0.08 0.00 77 1008.5
20260505163347 56 347 3.5 8.7 0.00 0.08 0.00 77 1008.6
20260505163103 57 31 3.5 7.8 0.00 0.08 0.00 77 1008.6
20260505163009 57 17 3.5 7.8 0.00 0.08 0.04 77 1008.6
20260505162521 57 17 3.5 7.8 0.00 0.08 0.00 78 1008.6
20260505162507 57 21 3.5 7.8 0.00 0.08 0.04 78 1008.7
20260505162029 56 25 3.5 8.7 0.00 0.08 0.04 78 1008.6
20260505161506 57 29 3.5 8.7 0.00 0.08 0.04 78 1008.6
20260505161503 57 5 3.5 8.7 0.00 0.08 0.00 78 1008.6
20260505161007 56 34 3.5 8.7 0.00 0.08 0.04 78 1008.7
20260505160957 56 31 3.5 8.7 0.00 0.08 0.00 78 1008.6
20260505160507 56 27 3.5 8.7 0.00 0.08 0.04 78 1008.6
20260505160457 56 42 3.5 8.7 0.00 0.08 0.00 78 1008.6
20260505153007 56 29 3.5 9.6 0.00 0.08 0.04 80 1008.8
20260505152950 56 34 3.5 9.6 0.00 0.08 0.00 80 1008.8
20260505152507 56 35 2.6 8.7 0.00 0.08 0.04 81 1008.9
20260505152443 56 80 2.6 8.7 0.00 0.08 0.00 81 1008.8
20260505152055 56 32 3.5 7.8 0.00 0.08 0.00 82 1008.8
20260505152007 56 26 3.5 8.7 0.00 0.08 0.04 81 1008.9
20260505152001 56 40 3.5 8.7 0.00 0.08 0.00 81 1008.8
20260505151508 56 24 3.5 7.8 0.00 0.08 0.04 82 1008.8
20260505151007 56 24 3.5 7.8 0.00 0.08 0.04 82 1008.9
20260505150940 56 10 3.5 7.8 0.00 0.08 0.00 82 1008.9
20260505150508 56 22 3.5 7.8 0.00 0.08 0.04 84 1009.1
20260505150445 55 22 3.5 7.8 0.00 0.08 0.00 84 1009.1
20260505140527 54 20 3.5 7.8 0.00 0.08 0.04 83 1009.4
20260505140432 55 35 3.5 7.8 0.00 0.08 0.00 83 1009.4
20260505125007 54 23 2.6 7.0 0.00 0.08 0.04 86 1009.9
20260505124948 54 31 2.6 7.0 0.00 0.08 0.00 86 1009.8
20260505124932 54 32 2.6 7.0 0.00 0.08 0.00 86 1009.8
20260505124528 54 19 2.6 7.0 0.00 0.08 0.04 86 1009.8
20260505124030 54 20 2.6 6.1 0.00 0.08 0.04 86 1009.9
20260505123921 54 26 1.7 6.1 0.00 0.08 0.00 86 1009.8
20260505123507 54 35 2.6 5.2 0.00 0.08 0.04 86 1009.9
20260505123410 54 86 2.6 5.2 0.00 0.08 0.00 86 1009.9
20260505123006 54 31 2.6 7.0 0.00 0.08 0.04 86 1010.0
20260505122917 54 67 2.6 7.0 0.00 0.08 0.00 86 1009.9
20260505122527 54 31 2.6 7.0 0.00 0.08 0.04 86 1010.0
20260505122412 54 24 2.6 7.0 0.00 0.08 0.00 86 1009.9
20260505122112 53 44 2.6 8.7 0.00 0.08 0.00 88 1010.1
20260505122007 54 37 2.6 6.1 0.00 0.08 0.04 86 1009.9
20260505121946 53 51 2.6 7.0 0.00 0.08 0.00 86 1009.9
20260505121905 54 95 2.6 7.8 0.00 0.08 0.00 86 1009.9
20260505121609 53 42 2.6 7.8 0.00 0.08 0.00 86 1010.0
20260505121528 54 31 2.6 7.8 0.00 0.08 0.04 86 1010.0
20260505121007 54 29 2.6 7.8 0.00 0.08 0.04 87 1010.0
20260505120507 53 30 2.6 6.1 0.00 0.08 0.04 87 1010.1
20260505120433 53 42 2.6 5.2 0.00 0.08 0.00 87 1010.0
20260505120119 53 30 3.5 7.8 0.00 0.08 0.00 87 1010.1
20260505120028 53 28 2.6 7.8 0.00 0.08 0.04 87 1010.1
20260505115528 53 35 2.6 7.8 0.00 0.08 0.04 87 1010.1
20260505115414 53 9 3.5 7.8 0.00 0.08 0.00 87 1010.1
20260505115028 53 36 3.5 8.7 0.00 0.08 0.04 87 1010.1
20260505114542 53 13 3.5 9.6 0.00 0.08 0.00 88 1010.1
20260505114506 53 28 2.6 8.7 0.00 0.08 0.04 88 1010.1
20260505114409 53 28 2.6 8.7 0.00 0.08 0.00 88 1010.1
20260505114007 53 28 3.5 7.8 0.00 0.08 0.04 88 1010.2
20260505113507 53 31 4.3 9.6 0.00 0.08 0.04 88 1010.1
20260505113355 53 29 4.3 9.6 0.00 0.08 0.00 88 1010.2
20260505113007 53 29 4.3 9.6 0.00 0.08 0.04 89 1010.3
20260505112846 53 29 3.5 9.6 0.00 0.08 0.00 89 1010.2
20260505112714 52 32 3.5 7.8 0.00 0.08 0.00 91 1010.2
20260505112507 53 27 3.5 9.6 0.00 0.08 0.04 89 1010.3
20260505112453 53 5 3.5 7.8 0.00 0.08 0.00 90 1010.2
20260505112007 53 30 2.6 7.8 0.00 0.08 0.04 90 1010.2
20260505111923 53 43 2.6 4.3 0.00 0.08 0.00 90 1010.2
20260505111508 53 30 2.6 4.3 0.00 0.08 0.04 91 1010.2
20260505111351 53 26 2.6 7.8 0.00 0.08 0.00 91 1010.2
20260505111009 52 34 3.5 7.8 0.00 0.08 0.04 91 1010.3
20260505110506 52 32 3.5 7.8 0.00 0.08 0.04 91 1010.3
20260505110452 52 26 3.5 8.7 0.00 0.08 0.00 92 1010.3
20260505110413 52 355 3.5 7.0 0.00 0.08 0.00 91 1010.3
20260505102007 51 22 4.3 9.6 0.00 0.08 0.04 93 1010.4
20260505101841 51 25 4.3 8.7 0.00 0.08 0.00 94 1010.4
20260505101508 51 24 4.3 7.8 0.00 0.08 0.04 94 1010.4
20260505101341 51 25 4.3 7.8 0.00 0.08 0.00 94 1010.4
20260505101007 51 27 3.5 7.8 0.00 0.08 0.04 94 1010.5
20260505100853 51 20 3.5 9.6 0.00 0.08 0.00 94 1010.5
20260505100836 51 38 3.5 7.8 0.00 0.08 0.00 94 1010.5
20260505100506 50 26 3.5 9.6 0.00 0.08 0.04 94 1010.5
20260505100028 50 25 4.3 9.6 0.00 0.08 0.04 94 1010.6
20260505095919 50 30 4.3 9.6 0.00 0.08 0.00 94 1010.5
20260505095844 50 355 4.3 9.6 0.00 0.08 0.00 94 1010.5
20260505095506 50 23 4.3 9.6 0.00 0.08 0.04 94 1010.6
20260505095028 50 22 4.3 9.6 0.00 0.09 0.04 94 1010.6
20260505094844 50 355 3.5 7.8 0.00 0.09 0.00 94 1010.6
20260505094506 50 23 3.5 7.8 0.00 0.09 0.04 94 1010.6
20260505094330 50 26 2.6 7.0 0.00 0.09 0.00 94 1010.6
20260505094008 50 23 3.5 7.0 0.00 0.09 0.04 94 1010.7
20260505093832 50 28 3.5 7.0 0.00 0.09 0.00 94 1010.6
20260505093527 50 22 3.5 7.0 0.00 0.09 0.04 94 1010.6
20260505093333 50 34 3.5 7.8 0.00 0.09 0.00 94 1010.6
20260505093006 50 22 4.3 7.8 0.00 0.10 0.04 94 1010.5
20260505092833 50 48 3.5 7.8 0.00 0.10 0.00 94 1010.6
20260505092506 50 23 3.5 7.8 0.00 0.10 0.04 94 1010.7
20260505092334 50 29 3.5 7.8 0.00 0.10 0.00 94 1010.7
20260505092008 50 22 2.6 7.0 0.00 0.10 0.04 94 1010.7
20260505091837 50 30 2.6 7.0 0.00 0.10 0.00 94 1010.6
20260505091506 50 28 2.6 6.1 0.00 0.10 0.04 94 1010.6
20260505091331 50 30 3.5 7.0 0.00 0.10 0.00 94 1010.6
20260505091006 50 32 3.5 7.8 0.00 0.10 0.04 94 1010.6
20260505090831 50 67 3.5 7.8 0.00 0.10 0.00 94 1010.7
20260505090527 50 31 3.5 7.8 0.00 0.10 0.04 94 1010.7
20260505090330 50 36 3.5 10.4 0.00 0.10 0.00 94 1010.6
20260505090007 50 33 3.5 10.4 0.00 0.10 0.04 94 1010.7
20260505085829 50 35 3.5 10.4 0.00 0.10 0.00 94 1010.6
20260505085506 50 29 3.5 10.4 0.00 0.10 0.04 94 1010.7
20260505085338 50 0 3.5 9.6 0.00 0.00 0.00 94 1010.6
20260505085028 50 29 3.5 9.6 0.00 0.10 0.04 94 1010.7
20260505084842 50 15 3.5 9.6 0.00 0.00 0.00 94 1010.7
20260505084506 50 30 3.5 7.8 0.00 0.10 0.04 94 1010.8
20260505084328 50 25 4.3 7.8 0.00 0.00 0.00 94 1010.7
20260505084310 50 25 4.3 10.4 0.00 0.00 0.00 94 1010.8
20260505084028 50 29 4.3 10.4 0.00 0.10 0.04 94 1010.7
20260505083651 50 61 3.5 8.7 0.00 0.00 0.00 94 1010.7
20260505083507 50 35 3.5 10.4 0.00 0.10 0.04 94 1010.8
20260505083448 50 22 3.5 10.4 0.00 0.00 0.00 94 1010.7
20260505083050 50 42 4.3 9.6 0.00 0.00 0.00 94 1010.6
20260505083032 50 5 3.5 9.6 0.00 0.00 0.00 94 1010.6
20260505083007 50 32 4.3 8.7 0.00 0.10 0.04 94 1010.7
20260505082917 50 61 3.5 8.7 0.00 0.00 0.00 94 1010.7
20260505082506 50 25 4.3 8.7 0.00 0.10 0.04 94 1010.5
20260505082006 50 25 4.3 9.6 0.00 0.10 0.04 94 1010.6
20260505081551 50 17 3.5 9.6 0.00 0.00 0.00 94 1010.7
20260505081546 50 26 3.5 9.6 0.00 0.00 0.00 94 1010.7
20260505081506 50 23 3.5 9.6 0.00 0.10 0.04 94 1010.6
20260505081358 50 28 3.5 8.7 0.00 0.00 0.00 94 1010.6
20260505081029 50 23 3.5 9.6 0.00 0.10 0.04 94 1010.7
20260505080506 50 28 3.5 9.6 0.00 0.10 0.04 94 1010.7
20260505080006 50 28 3.5 8.7 0.00 0.10 0.04 94 1010.7
20260505075822 50 54 3.5 8.7 0.00 0.00 0.00 94 1010.6
20260505075637 50 43 4.3 12.2 0.00 0.00 0.00 94 1010.6
20260505075609 50 49 4.3 12.2 0.00 0.00 0.00 94 1010.5
20260505075506 50 27 4.3 8.7 0.00 0.10 0.04 94 1010.6
20260505075410 50 15 4.3 8.7 0.00 0.00 0.00 94 1010.5
20260505075007 50 30 4.3 8.7 0.00 0.10 0.04 94 1010.6
20260505074506 50 29 4.3 12.2 0.00 0.10 0.04 94 1010.6
20260505074007 50 31 4.3 12.2 0.00 0.10 0.04 94 1010.6
20260505073819 50 49 3.5 8.7 0.00 0.00 0.00 94 1010.5
20260505073540 50 355 3.5 8.7 0.00 0.00 0.00 94 1010.6
20260505073506 50 30 3.5 8.7 0.00 0.10 0.04 94 1010.6
20260505073027 50 25 3.5 8.7 0.00 0.10 0.04 94 1010.6
20260505072819 50 28 3.5 8.7 0.00 0.00 0.00 94 1010.5
20260505072506 50 29 3.5 8.7 0.00 0.10 0.04 94 1010.6
20260505072314 50 47 2.6 8.7 0.00 0.00 0.00 94 1010.5
20260505072006 50 36 2.6 4.3 0.00 0.10 0.04 94 1010.5
20260505071822 50 20 2.6 6.1 0.00 0.00 0.00 94 1010.6
20260505071542 50 266 2.6 8.7 0.00 0.00 0.00 94 1010.6
20260505071506 50 33 2.6 6.1 0.00 0.10 0.04 94 1010.6
20260505071418 50 38 2.6 7.0 0.00 0.00 0.00 94 1010.6
20260505071006 50 27 2.6 7.0 0.00 0.10 0.04 94 1010.6
20260505070507 50 24 3.5 8.7 0.00 0.10 0.04 94 1010.6
20260505070317 50 15 3.5 8.7 0.00 0.00 0.00 94 1010.6
20260505070007 50 20 4.3 9.6 0.00 0.10 0.04 94 1010.7
20260505065826 50 10 4.3 10.4 0.00 0.00 0.00 94 1010.6
20260505065506 50 20 4.3 10.4 0.00 0.10 0.04 94 1010.7
20260505065314 50 15 4.3 10.4 0.00 0.00 0.00 94 1010.7
20260505065006 50 26 4.3 10.4 0.00 0.10 0.04 94 1010.6
20260505064810 50 29 4.3 9.6 0.00 0.00 0.00 94 1010.6
20260505064508 50 27 5.2 9.6 0.00 0.10 0.04 94 1010.7
20260505064320 50 22 5.2 9.6 0.00 0.00 0.00 94 1010.6
20260505064007 50 23 5.2 9.6 0.00 0.10 0.04 94 1010.6
20260505063809 50 49 5.2 9.6 0.00 0.00 0.00 94 1010.5
20260505063506 50 21 4.3 9.6 0.00 0.10 0.04 94 1010.7
20260505063315 50 32 4.3 10.4 0.00 0.00 0.00 94 1010.7
20260505063027 50 22 5.2 10.4 0.00 0.10 0.04 94 1010.7
20260505062812 50 56 5.2 10.4 0.00 0.00 0.00 94 1010.7
20260505062505 50 24 5.2 10.4 0.00 0.10 0.04 94 1010.7
20260505062313 50 5 5.2 9.6 0.00 0.00 0.00 94 1010.7
20260505062027 50 19 5.2 9.6 0.00 0.10 0.04 94 1010.7
20260505061809 50 36 4.3 9.6 0.00 0.00 0.00 94 1010.7
20260505061506 50 20 4.3 11.3 0.00 0.10 0.04 94 1010.7
20260505061302 50 15 4.3 11.3 0.00 0.00 0.00 94 1010.7
20260505061006 50 22 4.3 11.3 0.00 0.10 0.04 94 1010.8
20260505060804 50 44 4.3 11.3 0.00 0.00 0.00 94 1010.7
20260505060507 50 17 4.3 9.6 0.00 0.10 0.04 94 1010.8
20260505060301 50 12 5.2 10.4 0.00 0.00 0.00 94 1010.8
20260505060027 50 18 5.2 10.4 0.00 0.10 0.04 94 1010.9
20260505055758 50 26 4.3 10.4 0.00 0.00 0.00 94 1010.8
20260505055642 51 12 3.5 8.7 0.00 0.00 0.00 94 1010.5
20260505055546 50 5 4.3 10.4 0.00 0.00 0.00 94 1010.9
20260505055506 50 18 3.5 10.4 0.00 0.10 0.04 94 1010.9
20260505055334 50 46 3.5 10.4 0.00 0.00 0.00 94 1010.8
20260505055006 50 16 3.5 10.4 0.00 0.10 0.04 94 1010.9
20260505054751 51 30 3.5 8.7 0.00 0.00 0.00 94 1010.8
20260505054741 51 13 3.5 8.7 0.00 0.00 0.00 94 1010.7
20260505054506 50 16 3.5 7.8 0.00 0.10 0.04 94 1010.8
20260505054304 50 33 3.5 7.8 0.00 0.00 0.00 94 1010.8
20260505054118 51 17 2.6 6.1 0.00 0.00 0.00 94 1010.6
20260505054041 51 25 3.5 7.0 0.00 0.00 0.00 94 1010.7
20260505054026 51 42 3.5 8.7 0.00 0.00 0.00 94 1010.6
20260505054006 50 22 3.5 7.8 0.00 0.10 0.04 94 1010.9
20260505053838 50 17 3.5 7.8 0.00 0.00 0.00 94 1010.8
20260505053506 50 26 3.5 7.8 0.00 0.10 0.04 94 1010.8
20260505053357 51 32 2.6 7.8 0.00 0.00 0.00 94 1010.4
20260505053323 50 18 3.5 7.8 0.00 0.00 0.00 94 1010.7
20260505053006 50 23 3.5 8.7 0.00 0.10 0.04 94 1010.8
20260505052956 51 34 3.5 8.7 0.00 0.00 0.00 94 1010.8
20260505052527 50 23 3.5 8.7 0.00 0.10 0.04 94 1010.8
20260505052028 50 24 3.5 8.7 0.00 0.10 0.04 94 1010.8
20260505051642 51 27 2.6 8.7 0.00 0.00 0.00 94 1010.7
20260505051506 50 22 3.5 8.7 0.00 0.10 0.04 94 1010.8
20260505050506 51 29 2.6 7.0 0.00 0.10 0.04 94 1010.7
20260505041748 51 350 3.5 7.8 0.00 0.00 0.00 94 1010.3
20260505041506 51 18 3.5 7.0 0.00 0.10 0.04 93 1010.3
20260505041006 51 18 3.5 7.0 0.00 0.10 0.04 93 1010.3
20260505040754 51 30 3.5 9.6 0.00 0.00 0.00 93 1010.3
20260505040735 51 13 3.5 9.6 0.00 0.00 0.00 93 1010.2
20260505040506 51 21 3.5 9.6 0.00 0.10 0.04 93 1010.4
20260505040008 51 22 4.3 9.6 0.00 0.10 0.04 93 1010.4
20260505035739 51 30 3.5 9.6 0.00 0.00 0.00 93 1010.3
20260505035506 51 22 3.5 9.6 0.00 0.10 0.04 93 1010.4
20260505035319 51 19 3.5 8.7 0.00 0.00 0.00 93 1010.4
20260505035250 51 24 3.5 9.6 0.00 0.00 0.00 93 1010.3
20260505035007 51 22 3.5 7.8 0.00 0.10 0.04 93 1010.3
20260505034506 51 24 4.3 8.7 0.00 0.10 0.04 93 1010.4
20260505034235 51 36 4.3 8.7 0.00 0.00 0.00 93 1010.4
20260505034027 52 24 3.5 8.7 0.00 0.10 0.04 93 1010.4
20260505033731 51 17 3.5 8.7 0.01 0.00 0.00 93 1010.4
20260505033646 52 38 4.3 9.6 0.01 0.00 0.00 93 1010.4
20260505033506 52 22 3.5 9.6 0.01 0.10 0.04 93 1010.4
20260505033237 51 39 3.5 9.6 0.01 0.00 0.00 93 1010.4
20260505033008 52 22 4.3 9.6 0.01 0.10 0.04 93 1010.4
20260505032506 52 24 4.3 9.6 0.01 0.10 0.04 93 1010.4
20260505032232 52 37 4.3 9.6 0.01 0.00 0.00 93 1010.4
20260505032027 52 24 4.3 9.6 0.01 0.10 0.04 93 1010.5
20260505031736 52 28 4.3 8.7 0.02 0.00 0.00 93 1010.5
20260505031505 52 21 4.3 8.7 0.02 0.10 0.04 93 1010.6
20260505031237 52 28 3.5 9.6 0.02 0.00 0.00 93 1010.5
20260505031006 52 19 3.5 9.6 0.03 0.10 0.04 93 1010.6
20260505030730 52 5 3.5 9.6 0.03 0.00 0.00 93 1010.6
20260505030527 52 17 3.5 9.6 0.03 0.10 0.04 93 1010.6
20260505030224 52 13 3.5 8.7 0.03 0.00 0.00 93 1010.6
20260505030006 52 14 3.5 8.7 0.03 0.10 0.04 93 1010.7
20260505025716 52 41 3.5 7.8 0.03 0.00 0.00 93 1010.7
20260505025507 52 15 3.5 10.4 0.03 0.10 0.04 93 1010.7
20260505025229 52 344 3.5 10.4 0.03 0.00 0.00 93 1010.6
20260505025007 52 16 3.5 10.4 0.03 0.10 0.04 93 1010.6
20260505024719 52 23 3.5 10.4 0.03 0.00 0.00 93 1010.6
20260505024506 52 15 3.5 7.8 0.03 0.10 0.04 93 1010.7
20260505024224 53 19 3.5 8.7 0.03 0.00 0.00 93 1010.6
20260505024027 53 19 3.5 8.7 0.03 0.10 0.04 93 1010.6
20260505023717 53 72 3.5 8.7 0.02 0.00 0.00 93 1010.6
20260505023507 53 23 3.5 8.7 0.02 0.09 0.03 93 1010.6
20260505023214 53 11 3.5 7.0 0.02 0.00 0.00 93 1010.5
20260505023006 53 26 3.5 7.0 0.02 0.09 0.03 92 1010.5
20260505022727 53 21 3.5 7.0 0.02 0.00 0.00 92 1010.5
20260505022506 53 26 3.5 7.0 0.02 0.09 0.03 92 1010.5
20260505022219 53 61 3.5 7.8 0.02 0.00 0.00 93 1010.6
20260505022006 53 24 4.3 8.7 0.02 0.09 0.03 93 1010.5
20260505021720 53 30 3.5 8.7 0.02 0.00 0.00 93 1010.5
20260505021506 53 23 3.5 8.7 0.01 0.08 0.02 93 1010.5
20260505021253 53 24 3.5 8.7 0.01 0.00 0.00 92 1010.5
20260505021006 53 23 3.5 8.7 0.00 0.07 0.01 92 1010.5
20260505020724 53 39 4.3 8.7 0.00 0.00 0.00 92 1010.5
20260505020528 53 23 4.3 8.7 0.00 0.07 0.01 92 1010.6
20260505020216 53 26 4.3 8.7 0.00 0.00 0.00 92 1010.5
20260505020006 53 21 4.3 8.7 0.00 0.07 0.01 92 1010.6
20260505015708 53 26 4.3 8.7 0.00 0.00 0.00 92 1010.6
20260505015506 54 21 4.3 8.7 0.00 0.07 0.01 92 1010.6
20260505015223 54 37 4.3 7.8 0.00 0.00 0.00 92 1010.7
20260505015007 54 22 3.5 7.8 0.00 0.07 0.01 92 1010.6
20260505014714 54 29 2.6 7.8 0.00 0.00 0.00 92 1010.6
20260505014506 54 26 2.6 7.0 0.00 0.07 0.01 92 1010.7
20260505014453 54 13 2.6 7.0 0.00 0.00 0.00 92 1010.6